Tracking 19245 objects as of 17-Aug-2018
HD Live streaming from Space Station
objects crossing your sky now

TOMSK-TPU 120

Track TOMSK-TPU 120 now!
10-day predictions
TOMSK-TPU 120 is classified as:


NORAD ID: 42910
Int'l Code: 1998-067MZ
Perigee: 373.8 km
Apogee: 381.5 km
Inclination: 51.6 °
Period: 92.0 minutes
Semi major axis: 6748 km
RCS: Unknown
Launch date: November 20, 1998
Source: Commonwealth of Independent States (former USSR) (CIS)
Launch site: TYURATAM MISSILE AND SPACE COMPLEX (TTMTR)
Uplink (MHz):
Downlink (MHz): 437.025
Beacon (MHz): 145.800
Mode: 9600bps FSK Voice
Call sign: RS4S
Status: Inactive

aabbcc
Your satellite tracking list
Your tracking list is empty




NASA's NSSDC Master Catalog

Two Line Element Set (TLE):
1 42910U 98067MZ  18228.91818103 +.00018958 +00000-0 +18710-3 0  9999
2 42910 051.6347 058.0485 0005690 082.9845 277.1798 15.65939666056895
Source of the keplerian elements: AFSPC